A Windows XP help forum. PCbanter

If this is your first visit, be sure to check out the FAQ by clicking the link above. You may have to register before you can post: click the register link above to proceed. To start viewing messages, select the forum that you want to visit from the selection below.

Go Back   Home » PCbanter forum » Microsoft Windows XP » Security and Administration with Windows XP
Site Map Home Register Authors List Search Today's Posts Mark Forums Read Web Partners

Security BK87333 Fails to install



 
 
Thread Tools Display Modes
  #1  
Old April 16th 05, 04:44 PM
AlanK 1939
external usenet poster
 
Posts: n/a
Default Security BK87333 Fails to install

Windows XP Home SP2 reports install fail for BK87333. All other updates
install. Below is Security Update log if helps someone identify the problem.

2005-04-16 10:52:12-0400 1080 60c Service Main starts
2005-04-16 10:52:12-0400 1080 60c Using BatchFlushAge = 22948.
2005-04-16 10:52:12-0400 1080 60c Using SamplingValue = 772.
2005-04-16 10:52:12-0400 1080 60c Successfully loaded event namespace
dictionary.
2005-04-16 10:52:12-0400 1080 60c Successfully loaded client event namespace
descriptor.
2005-04-16 10:52:12-0400 1080 60c Successfully initialized local event
logger. Events will be logged at
C:\WINDOWS\SoftwareDistribution\ReportingEvents.lo g.
2005-04-16 10:52:12-0400 1080 60c Successfully initialized NT event logger.
2005-04-16 10:52:12-0400 1080 60c Successfully initialized event uploader 0.
2005-04-16 10:52:12-0400 1080 60c Successfully initialized event uploader 1.
2005-04-16 10:52:12-0400 1080 60c WU client with version 5.4.3790.2182
successfully initialized
2005-04-16 10:52:12-0400 1080 60c Service status is now SERVICE_RUNNING
2005-04-16 10:52:57-0400 1080 60c start delayed initialization of WU client
2005-04-16 10:52:58-0400 2444 990 Trying to make out of proc datastore active
2005-04-16 10:52:58-0400 2444 990 Out of proc datastore is now active
2005-04-16 10:52:58-0400 1080 60c Client Call Recorder finished delayed
initialization
2005-04-16 10:52:58-0400 1080 60c Setting next AU detection timeout to
2005-04-16 14:52:58
2005-04-16 10:52:58-0400 1080 60c AU finished delayed initialization
2005-04-16 10:52:58-0400 1080 60c AU received event of 1
2005-04-16 10:52:58-0400 1080 60c WU client succeeds
CClientCallRecorder::BeginFindUpdates from AutomaticUpdates with call id
{EB97ACCA-FA47-487B-B144-3D1174B9EE58}
2005-04-16 10:52:59-0400 1080 89c WU client executing call
{EB97ACCA-FA47-487B-B144-3D1174B9EE58} of type Search Call
2005-04-16 10:52:59-0400 1080 89c Checking for different Redirector at:
http://download.windowsupdate.com/ms...ir/wuredir.cab
2005-04-16 10:53:08-0400 1080 43c Service received connect notification
2005-04-16 10:53:08-0400 1080 60c AU received event of 3
2005-04-16 10:53:08-0400 1080 43c Service received logon notification
2005-04-16 10:53:08-0400 1080 60c AU received event of 3
2005-04-16 10:53:18-0400 1080 89c Successfully refreshed Redirector cab.
2005-04-16 10:53:21-0400 1080 60c AU received event of 1
2005-04-16 10:53:21-0400 1080 60c Forced install timer expired for scheduled
install
2005-04-16 10:53:21-0400 1080 60c Setting AU scheduled install time to
2005-04-17 07:00:00
2005-04-16 10:53:24-0400 1080 89c Loading inf file
C:\WINDOWS\SoftwareDistribution\SelfUpdate\wusetup .inf
2005-04-16 10:53:25-0400 1080 89c Section name: cdm: Index: 0
2005-04-16 10:53:25-0400 1080 89c Section name: iuengine: Index: 1
2005-04-16 10:53:25-0400 1080 89c Section name: wuapi: Index: 2
2005-04-16 10:53:25-0400 1080 89c Section name: wuauclt: Index: 3
2005-04-16 10:53:25-0400 1080 89c Section name: wuauclt1: Index: 4
2005-04-16 10:53:25-0400 1080 89c Section name: wuaucpl: Index: 5
2005-04-16 10:53:25-0400 1080 89c Section name: wuaueng_SelfUpdate: Index: 6
2005-04-16 10:53:25-0400 1080 89c Section name: wuaueng1: Index: 7
2005-04-16 10:53:25-0400 1080 89c Section name: wucltui: Index: 8
2005-04-16 10:53:25-0400 1080 89c Section name: wups: Index: 9
2005-04-16 10:53:25-0400 1080 89c Section name: wuweb_SelfUpdate: Index: 10
2005-04-16 10:53:25-0400 1080 89c Section name: winhttp: Index: 11
2005-04-16 10:53:25-0400 1080 89c Required Version for binary
C:\WINDOWS\system32\cdm.dll is: 5,5,3790,2182
2005-04-16 10:53:26-0400 1080 89c Binary: C:\WINDOWS\system32\cdm.dll:
Target version: 5.5.3790.2182 Required: 5.5.3790.2182
2005-04-16 10:53:26-0400 1080 89c Required Version for binary
C:\WINDOWS\system32\iuengine.dll is: 5,4,3790,2182
2005-04-16 10:53:28-0400 1080 89c Binary: C:\WINDOWS\system32\iuengine.dll:
Target version: 5.4.3790.2182 Required: 5.4.3790.2182
2005-04-16 10:53:28-0400 1080 89c Required Version for binary
C:\WINDOWS\system32\wuapi.dll is: 5,4,3790,2182
2005-04-16 10:53:31-0400 1080 89c Binary: C:\WINDOWS\system32\wuapi.dll:
Target version: 5.4.3790.2182 Required: 5.4.3790.2182
2005-04-16 10:53:31-0400 1080 89c Required Version for binary
C:\WINDOWS\system32\wuauclt.exe is: 5,4,3790,2182
2005-04-16 10:53:31-0400 1080 89c Binary: C:\WINDOWS\system32\wuauclt.exe:
Target version: 5.4.3790.2182 Required: 5.4.3790.2182
2005-04-16 10:53:31-0400 1080 89c Required Version for binary
C:\WINDOWS\system32\wuauclt1.exe is: 5,4,3790,2182
2005-04-16 10:53:34-0400 1080 89c Binary: C:\WINDOWS\system32\wuauclt1.exe:
Target version: 5.4.3790.2182 Required: 5.4.3790.2182
2005-04-16 10:53:34-0400 1080 89c Required Version for binary
C:\WINDOWS\system32\wuaucpl.cpl is: 5,4,3790,2182
2005-04-16 10:53:34-0400 1080 89c Binary: C:\WINDOWS\system32\wuaucpl.cpl:
Target version: 5.4.3790.2182 Required: 5.4.3790.2182
2005-04-16 10:53:34-0400 1080 89c Required Version for binary
C:\WINDOWS\system32\wuaueng.dll is: 5,4,3790,2182
2005-04-16 10:53:34-0400 1080 89c Binary: C:\WINDOWS\system32\wuaueng.dll:
Target version: 5.4.3790.2182 Required: 5.4.3790.2182
2005-04-16 10:53:34-0400 1080 89c Required Version for binary
C:\WINDOWS\system32\wuaueng1.dll is: 5,4,3790,2182
2005-04-16 10:53:37-0400 1080 89c Binary: C:\WINDOWS\system32\wuaueng1.dll:
Target version: 5.4.3790.2182 Required: 5.4.3790.2182
2005-04-16 10:53:37-0400 1080 89c Required Version for binary
C:\WINDOWS\system32\wucltui.dll is: 5,4,3790,2182
2005-04-16 10:53:39-0400 1080 89c Binary: C:\WINDOWS\system32\wucltui.dll:
Target version: 5.4.3790.2182 Required: 5.4.3790.2182
2005-04-16 10:53:39-0400 1080 89c Required Version for binary
C:\WINDOWS\system32\wups.dll is: 5,4,3790,2182
2005-04-16 10:53:39-0400 1080 89c Binary: C:\WINDOWS\system32\wups.dll:
Target version: 5.4.3790.2182 Required: 5.4.3790.2182
2005-04-16 10:53:39-0400 1080 89c Required Version for binary
C:\WINDOWS\system32\wuweb.dll is: 5,4,3790,2182
2005-04-16 10:53:41-0400 1080 89c Binary: C:\WINDOWS\system32\wuweb.dll:
Target version: 5.4.3790.2182 Required: 5.4.3790.2182
2005-04-16 10:53:58-0400 1080 89c PT: Using serverID
{9482F4B4-E343-43B6-B170-9A65BC822C77}
2005-04-16 10:53:58-0400 1080 89c PT: Using server URL
https://v5.windowsupdate.microsoft.c...ce/client.asmx
2005-04-16 10:54:49-0400 1080 89c Add header for accept-encoding: xpress
succeeded
2005-04-16 10:54:50-0400 1080 89c DetectCompressionType returning type 1,
hr=0x0
2005-04-16 10:54:50-0400 1080 89c Add header for accept-encoding: xpress
succeeded
2005-04-16 10:54:51-0400 1080 89c DetectCompressionType returning type 1,
hr=0x0
2005-04-16 10:54:53-0400 1080 89c PT: Using serverID
{9482F4B4-E343-43B6-B170-9A65BC822C77}
2005-04-16 10:54:53-0400 1080 89c PT: Using server URL
https://v5.windowsupdate.microsoft.c...ce/client.asmx
2005-04-16 10:54:53-0400 1080 89c Add header for accept-encoding: xpress
succeeded
2005-04-16 10:54:53-0400 1080 89c DetectCompressionType returning type 1,
hr=0x0
2005-04-16 10:54:55-0400 1080 89c WU client add update
{DD2CC470-501A-4BF2-BC57-88C8F52439EB}.101 to search result
2005-04-16 10:54:55-0400 1080 89c WU client found 1 updates and 10
categories in search
2005-04-16 10:54:55-0400 1080 89c OS Version = 5.1.2600.2.0.66304
2005-04-16 10:54:55-0400 1080 89c Computer Brand = Dell Computer Corporation
2005-04-16 10:54:55-0400 1080 89c Computer Model = Dimension 8250

2005-04-16 10:54:55-0400 1080 89c Bios Revision = A03
2005-04-16 10:54:55-0400 1080 89c Bios Name = Default System BIOS
2005-04-16 10:54:55-0400 1080 89c Bios Release Date = 2003-02-24T00:00:00
2005-04-16 10:54:55-0400 1080 89c Locale ID = 1033
2005-04-16 10:54:55-0400 1080 89c ClientVersion: iuengine.dll = 5.4.3790.2182
2005-04-16 10:54:55-0400 1080 89c ClientVersion: wuapi.dll = 5.4.3790.2182
2005-04-16 10:54:55-0400 1080 89c ClientVersion: wuauclt.exe = 5.4.3790.2182
2005-04-16 10:54:55-0400 1080 89c ClientVersion: wuauclt1.exe = 5.4.3790.2182
2005-04-16 10:54:55-0400 1080 89c ClientVersion: wuaucpl.cpl = 5.4.3790.2182
2005-04-16 10:54:55-0400 1080 89c ClientVersion: wuaueng.dll = 5.4.3790.2182
2005-04-16 10:54:55-0400 1080 89c ClientVersion: wuaueng1.dll = 5.4.3790.2182
2005-04-16 10:54:55-0400 1080 89c ClientVersion: wuauserv.dll = 5.4.3790.2180
2005-04-16 10:54:55-0400 1080 89c ClientVersion: wucltui.dll = 5.4.3790.2182
2005-04-16 10:54:56-0400 1080 89c WU client finished Searching for update
2005-04-16 10:54:56-0400 1080 89c AU Detection callback: 1 updates detected
2005-04-16 10:54:56-0400 1080 89c Setting next AU detection timeout to
2005-04-17 10:02:56
2005-04-16 10:54:56-0400 1080 89c Setting AU scheduled install time to
2005-04-17 07:00:00
2005-04-16 10:54:56-0400 1080 89c Found no updates approved for download
matching criteria 0.
2005-04-16 10:54:56-0400 1080 89c Found no updates approved for download
matching criteria 1.
2005-04-16 10:54:56-0400 1080 89c Found no updates approved for download
matching criteria 2.
2005-04-16 10:54:56-0400 1080 89c Found no updates approved for download
matching criteria 3.
2005-04-16 10:54:56-0400 1080 89c Found no updates approved for download
matching criteria 4.
2005-04-16 10:54:56-0400 1080 448 WU client executing call
{61A28AE7-2B09-49FF-8337-54054F35AA3B} of type Download Call
2005-04-16 10:54:56-0400 1080 448 Dumping out update 1 of 1
2005-04-16 10:54:56-0400 1080 448 title = Security Update for Windows XP
(KB873333)
2005-04-16 10:54:56-0400 1080 448 dumping updateId
{DD2CC470-501A-4BF2-BC57-88C8F52439EB}.101 bundling 1 updates
2005-04-16 10:54:56-0400 1080 448 bundled update No. 1 is
{5C0B58C4-9350-4CF2-8197-83D3C89F20D5}.101
2005-04-16 10:54:56-0400 1080 89c WU client persisted 1 download calls
2005-04-16 10:54:56-0400 1080 89c WU client succeeds
CClientCallRecorder::BeginDownloadUpdates from AutomaticUpdates with call id
{61A28AE7-2B09-49FF-8337-54054F35AA3B}
2005-04-16 10:54:56-0400 1080 89c Successfully initiated download for 1
updates
2005-04-16 10:54:56-0400 1080 89c Successfully initiated download for 1
updates matching criteria 5
2005-04-16 10:54:56-0400 1080 89c Setting AU scheduled install time to
2005-04-17 07:00:00
2005-04-16 10:54:56-0400 1080 89c WU client calls back to search call
AutomaticUpdates with code Call complete and error 0
2005-04-16 10:54:56-0400 1080 89c WU client completed and deleted call
{EB97ACCA-FA47-487B-B144-3D1174B9EE58}
2005-04-16 10:55:10-0400 1080 60c AU received event of 1
2005-04-16 10:55:10-0400 1080 60c Successfully launched client for directive 3
2005-04-16 10:55:12-0400 1080 448 Updateci: OpenFileForScan(
C:\WINDOWS\SoftwareDistribution\Download\S-1-5-18\810c536d786592e0efb9852931bf1ba6\update\update. exe ): failed (3)
2005-04-16 10:55:12-0400 1080 448 Updateci:
WinSEUpdateHandler::_LaunchInstaller: Failed opening
C:\WINDOWS\SoftwareDistribution\Download\S-1-5-18\810c536d786592e0efb9852931bf1ba6\update\update. exe (3)
2005-04-16 10:55:12-0400 1080 448 Updateci: WinSEUpdateHandler::_Inventory:
Installer returned 0x3 (3)
2005-04-16 10:55:12-0400 1080 448 DM: GenerateDownloadRequest failed with
0x80070003.
2005-04-16 10:55:12-0400 1080 448 Error 80070003 occurred while downloading
update; notifying dependent calls.
2005-04-16 10:55:13-0400 1080 448 WU client persisted 1 download calls
2005-04-16 10:55:13-0400 1080 448 WU client persisted 1 download calls
2005-04-16 10:55:13-0400 1080 55c Update Download failed, error is 80070003
2005-04-16 10:55:13-0400 1080 55c Download complete for all calls
2005-04-16 10:55:13-0400 1080 55c Setting AU scheduled install time to
2005-04-17 07:00:00
2005-04-16 10:55:13-0400 1080 448 REPORT EVENT:
{EBF2D822-9DC9-4008-8B64-AEF3EDEFB147} 884 2005-04-16
10:54:55-0400 1 147 101 {00000000-0000-0000-0000-000000000000} 0 0 AutomaticUpdates Success Software Synchronization Agent has finished detecting items.
2005-04-16 10:55:13-0400 1080 448 Reopened existing event cache file at
C:\WINDOWS\SoftwareDistribution\EventCache\{C034CC 1E-2389-4A83-BA68-49F426FF5B81}.bin for writing.
2005-04-16 10:55:13-0400 1080 55c WU client calls back to download call
{61A28AE7-2B09-49FF-8337-54054F35AA3B} with code Call complete and error 0
2005-04-16 10:55:13-0400 1080 55c WU client completed and deleted call
{61A28AE7-2B09-49FF-8337-54054F35AA3B}
2005-04-16 10:55:13-0400 1080 55c WU client persisted 0 download calls
2005-04-16 10:55:13-0400 1080 448 Reopened existing event cache file at
C:\WINDOWS\SoftwareDistribution\EventCache\{C65033 C7-B4F1-4EA8-ABB2-2F8D4B36FE11}.bin for writing.
2005-04-16 10:55:13-0400 1080 60c AU received event of 0
2005-04-16 10:55:18-0400 1080 448 REPORT EVENT:
{28510B54-5355-4E44-B626-E38D240B1278} 885 2005-04-16
10:55:13-0400 1 161 101 {DD2CC470-501A-4BF2-BC57-88C8F52439EB} 101 80070003 AutomaticUpdates Failure Content Download Error: Download failed.
2005-04-16 10:55:18-0400 1080 448 REPORT EVENT:
{5EAF5892-9041-493A-A62E-FE3933040EB7} 886 2005-04-16
10:55:13-0400 1 162 101 {5C0B58C4-9350-4CF2-8197-83D3C89F20D5} 101 80070003 AutomaticUpdates Success Content Download Download succeeded.
2005-04-16 10:55:18-0400 1080 448 REPORT EVENT:
{14C66719-8127-4FBE-8DAA-D1518FAA5C10} 887 2005-04-16
10:55:13-0400 1 161 101 {5C0B58C4-9350-4CF2-8197-83D3C89F20D5} 101 80070003 AutomaticUpdates Failure Content Download Error: Download failed.
2005-04-16 11:00:13-0400 2444 990 Out of proc datastore is shutting down
2005-04-16 11:00:14-0400 2444 990 Out of proc datastore is now inactive
2005-04-16 11:01:21-0400 3236 e80 Trying to make out of proc datastore active
2005-04-16 11:01:21-0400 3236 e80 Out of proc datastore is now active
2005-04-16 11:01:21-0400 1080 5b8 WU client succeeds
CClientCallRecorder::EnumerateService
2005-04-16 11:01:23-0400 1080 578 WU client succeeds
CClientCallRecorder::EnumerateService
2005-04-16 11:01:28-0400 1048 40c Checking for different Redirector at:
http://download.windowsupdate.com/ms...ir/wuredir.cab
2005-04-16 11:01:28-0400 1048 40c WinInet: Server file is not newer.
Skipping download.
2005-04-16 11:01:28-0400 1048 40c Successfully refreshed Redirector cab.
2005-04-16 11:01:28-0400 1048 40c WinInet: Server file is not newer.
Skipping download.
2005-04-16 11:01:29-0400 1048 40c WinInet: Download speed is 31985 bytes/sec
2005-04-16 11:01:29-0400 1048 40c WinInet: Successfully downloaded
http://v5.windowsupdate.microsoft.co...en/wusetup.cab to
file C:\WINDOWS\SoftwareDistribution\WebSetup\wusetup.c ab
2005-04-16 11:01:29-0400 1048 40c Loading inf file
C:\WINDOWS\SoftwareDistribution\WebSetup\wusetup.i nf
2005-04-16 11:01:29-0400 1048 40c Section name: cdm: Index: 0
2005-04-16 11:01:29-0400 1048 40c Section name: iuengine: Index: 1
2005-04-16 11:01:29-0400 1048 40c Section name: wuapi: Index: 2
2005-04-16 11:01:29-0400 1048 40c Section name: wuauclt: Index: 3
2005-04-16 11:01:29-0400 1048 40c Section name: wuauclt1: Index: 4
2005-04-16 11:01:29-0400 1048 40c Section name: wuaucpl: Index: 5
2005-04-16 11:01:29-0400 1048 40c Section name: wuaueng_WebSetup: Index: 6
2005-04-16 11:01:29-0400 1048 40c Section name: wuaueng1: Index: 7
2005-04-16 11:01:29-0400 1048 40c Section name: wuauserv_WebSetup: Index: 8
2005-04-16 11:01:29-0400 1048 40c Section name: wucltui: Index: 9
2005-04-16 11:01:29-0400 1048 40c Section name: wups: Index: 10
2005-04-16 11:01:29-0400 1048 40c Section name: winhttp: Index: 11
2005-04-16 11:01:29-0400 1048 40c Required Version for binary
C:\WINDOWS\system32\cdm.dll is: 5,5,3790,2182
2005-04-16 11:01:29-0400 1048 40c Binary: C:\WINDOWS\system32\cdm.dll:
Target version: 5.5.3790.2182 Required: 5.5.3790.2182
2005-04-16 11:01:29-0400 1048 40c Required Version for binary
C:\WINDOWS\system32\iuengine.dll is: 5,4,3790,2182
2005-04-16 11:01:29-0400 1048 40c Binary: C:\WINDOWS\system32\iuengine.dll:
Target version: 5.4.3790.2182 Required: 5.4.3790.2182
2005-04-16 11:01:29-0400 1048 40c Required Version for binary
C:\WINDOWS\system32\wuapi.dll is: 5,4,3790,2182
2005-04-16 11:01:29-0400 1048 40c Binary: C:\WINDOWS\system32\wuapi.dll:
Target version: 5.4.3790.2182 Required: 5.4.3790.2182
2005-04-16 11:01:29-0400 1048 40c Required Version for binary
C:\WINDOWS\system32\wuauclt.exe is: 5,4,3790,2182
2005-04-16 11:01:29-0400 1048 40c Binary: C:\WINDOWS\system32\wuauclt.exe:
Target version: 5.4.3790.2182 Required: 5.4.3790.2182
2005-04-16 11:01:29-0400 1048 40c Required Version for binary
C:\WINDOWS\system32\wuauclt1.exe is: 5,4,3790,2182
2005-04-16 11:01:29-0400 1048 40c Binary: C:\WINDOWS\system32\wuauclt1.exe:
Target version: 5.4.3790.2182 Required: 5.4.3790.2182
2005-04-16 11:01:29-0400 1048 40c Required Version for binary
C:\WINDOWS\system32\wuaucpl.cpl is: 5,4,3790,2182
2005-04-16 11:01:29-0400 1048 40c Binary: C:\WINDOWS\system32\wuaucpl.cpl:
Target version: 5.4.3790.2182 Required: 5.4.3790.2182
2005-04-16 11:01:29-0400 1048 40c Required Version for binary
C:\WINDOWS\system32\wuaueng.dll is: 5,4,3790,2182
2005-04-16 11:01:29-0400 1048 40c Binary: C:\WINDOWS\system32\wuaueng.dll:
Target version: 5.4.3790.2182 Required: 5.4.3790.2182
2005-04-16 11:01:29-0400 1048 40c Required Version for binary
C:\WINDOWS\system32\wuaueng1.dll is: 5,4,3790,2182
2005-04-16 11:01:29-0400 1048 40c Binary: C:\WINDOWS\system32\wuaueng1.dll:
Target version: 5.4.3790.2182 Required: 5.4.3790.2182
2005-04-16 11:01:29-0400 1048 40c Required Version for binary
C:\WINDOWS\system32\wucltui.dll is: 5,4,3790,2182
2005-04-16 11:01:29-0400 1048 40c Binary: C:\WINDOWS\system32\wucltui.dll:
Target version: 5.4.3790.2182 Required: 5.4.3790.2182
2005-04-16 11:01:29-0400 1048 40c Required Version for binary
C:\WINDOWS\system32\wups.dll is: 5,4,3790,2182
2005-04-16 11:01:29-0400 1048 40c Binary: C:\WINDOWS\system32\wups.dll:
Target version: 5.4.3790.2182 Required: 5.4.3790.2182
2005-04-16 11:01:34-0400 1080 578 WU client succeeds
CClientCallRecorder::BeginFindUpdates from WindowsUpdate with call id
{8F9BA54A-A6D5-47DF-A5E5-BDB0BA6E4040}
2005-04-16 11:01:34-0400 1080 55c WU client executing call
{8F9BA54A-A6D5-47DF-A5E5-BDB0BA6E4040} of type Search Call
2005-04-16 11:01:34-0400 1080 55c PT: Using serverID
{9482F4B4-E343-43B6-B170-9A65BC822C77}
2005-04-16 11:01:34-0400 1080 55c PT: Using server URL
https://v5.windowsupdate.microsoft.c...ce/client.asmx
2005-04-16 11:01:35-0400 1080 55c Add header for accept-encoding: xpress
succeeded
2005-04-16 11:01:49-0400 1080 55c DetectCompressionType returning type 1,
hr=0x0
2005-04-16 11:01:50-0400 1080 55c Add header for accept-encoding: xpress
succeeded
2005-04-16 11:01:50-0400 1080 55c DetectCompressionType returning type 1,
hr=0x0
2005-04-16 11:01:50-0400 1080 55c PT: Using serverID
{9482F4B4-E343-43B6-B170-9A65BC822C77}
2005-04-16 11:01:50-0400 1080 55c PT: Using server URL
https://v5.windowsupdate.microsoft.c...ce/client.asmx
2005-04-16 11:01:50-0400 1080 55c Add header for accept-encoding: xpress
succeeded
2005-04-16 11:01:51-0400 1080 55c DetectCompressionType returning type 1,
hr=0x0
2005-04-16 11:01:51-0400 1080 55c WU client add update
{8992C33E-AB76-4DFB-9AF0-0FD471338F32}.100 to search result
2005-04-16 11:01:51-0400 1080 55c WU client add update
{DD2CC470-501A-4BF2-BC57-88C8F52439EB}.101 to search result
2005-04-16 11:01:51-0400 1080 55c WU client found 2 updates and 10
categories in search
2005-04-16 11:01:51-0400 1080 55c WU client finished Searching for update
2005-04-16 11:01:51-0400 1080 55c WU client calls back to search call
WindowsUpdate with code Call complete and error 0
2005-04-16 11:01:51-0400 1080 55c WU client completed and deleted call
{8F9BA54A-A6D5-47DF-A5E5-BDB0BA6E4040}
2005-04-16 11:01:56-0400 1080 55c REPORT EVENT:
{E221B008-9399-4551-A1EB-4F1FC690D2F4} 888 2005-04-16
11:01:51-0400 1 147 101 {00000000-0000-0000-0000-000000000000} 0 0 WindowsUpdate Success Software Synchronization Agent has finished detecting items.
2005-04-16 11:02:07-0400 1080 578 WU client succeeds
CClientCallRecorder::BeginInstallUpdates from WindowsUpdate with call id
{61EC62BB-D293-4E89-803E-86C014D50AF9}
2005-04-16 11:02:07-0400 1080 55c WU client executing call
{61EC62BB-D293-4E89-803E-86C014D50AF9} of type Install call
2005-04-16 11:02:07-0400 1080 55c validate updates before Install
2005-04-16 11:02:08-0400 1080 55c prune update list before Install
2005-04-16 11:02:08-0400 1080 55c setting system restore point
2005-04-16 11:02:13-0400 1080 448 WU client calls back to install call
{61EC62BB-D293-4E89-803E-86C014D50AF9} with code Call progress and error 0
2005-04-16 11:02:13-0400 1080 55c WU client starts install in user context
2005-04-16 11:02:13-0400 1080 55c WU client is installing update
{5C0B58C4-9350-4CF2-8197-83D3C89F20D5}.101
2005-04-16 11:02:13-0400 2468 c40 Updateci: OpenFileForScan(
C:\WINDOWS\SoftwareDistribution\Download\191c89919 6624d7a81a735dad2332655\update\update.exe ): failed (3)
2005-04-16 11:02:13-0400 2468 c40 Updateci:
WinSEUpdateHandler::_LaunchInstaller: Failed opening
C:\WINDOWS\SoftwareDistribution\Download\191c89919 6624d7a81a735dad2332655\update\update.exe (3)
2005-04-16 11:02:13-0400 1080 55c WU client finishes installing update
{5C0B58C4-9350-4CF2-8197-83D3C89F20D5}.101 with result 0x8024200b
2005-04-16 11:02:18-0400 1080 448 REPORT EVENT:
{59967677-2CD1-4435-8830-67DD3605010F} 889 2005-04-16
11:02:13-0400 1 182 101 {DD2CC470-501A-4BF2-BC57-88C8F52439EB} 101 80070003 WindowsUpdate Failure Content
Install Installation Failu Windows failed to install the following update
with error 0x80070003: Security Update for Windows XP (KB873333).
2005-04-16 11:02:18-0400 1080 448 REPORT EVENT:
{E6110D25-796E-4C8C-A3F2-216762BC5939} 890 2005-04-16
11:02:13-0400 1 182 101 {5C0B58C4-9350-4CF2-8197-83D3C89F20D5} 101 80070003 WindowsUpdate Failure Content
Install Installation Failu Windows failed to install the following update
with error 0x80070003: Security Update for Windows XP (KB873333).
2005-04-16 11:03:37-0400 1080 55c system restore point set
2005-04-16 11:03:37-0400 1080 55c Agent state changed, signalling AU to
redetect with NO delay
2005-04-16 11:03:37-0400 1080 55c WU client finished installing updates
2005-04-16 11:03:37-0400 1080 60c AU received event of 3
2005-04-16 11:03:37-0400 1080 60c AU received event of 1
2005-04-16 11:03:37-0400 1080 60c WU client succeeds
CClientCallRecorder::BeginFindUpdates from AutomaticUpdates with call id
{DDC78A30-FC19-4539-9822-C3D279F7A1EA}
2005-04-16 11:03:37-0400 1080 55c WU client executing call
{DDC78A30-FC19-4539-9822-C3D279F7A1EA} of type Search Call
2005-04-16 11:03:37-0400 1080 89c WU client calls back to install call
{61EC62BB-D293-4E89-803E-86C014D50AF9} with code Call complete and error 0
2005-04-16 11:03:37-0400 1080 89c WU client completed and deleted call
{61EC62BB-D293-4E89-803E-86C014D50AF9}
2005-04-16 11:03:38-0400 1080 55c WU client add update
{DD2CC470-501A-4BF2-BC57-88C8F52439EB}.101 to search result
2005-04-16 11:03:38-0400 1080 55c WU client found 1 updates and 10
categories in search
2005-04-16 11:03:38-0400 1080 55c WU client finished Searching for update
2005-04-16 11:03:38-0400 1080 55c AU Detection callback: 1 updates detected
2005-04-16 11:03:38-0400 1080 55c Setting AU scheduled install time to
2005-04-17 07:00:00
2005-04-16 11:03:38-0400 1080 55c Found no updates approved for download
matching criteria 0.
2005-04-16 11:03:38-0400 1080 55c Found no updates approved for download
matching criteria 1.
2005-04-16 11:03:38-0400 1080 55c Found no updates approved for download
matching criteria 2.
2005-04-16 11:03:38-0400 1080 55c Found no updates approved for download
matching criteria 3.
2005-04-16 11:03:38-0400 1080 55c Found no updates approved for download
matching criteria 4.
2005-04-16 11:03:38-0400 1080 89c WU client executing call
{52ADF790-4104-4B41-BA91-C83C5A423F05} of type Download Call
2005-04-16 11:03:38-0400 1080 55c WU client persisted 1 download calls
2005-04-16 11:03:38-0400 1080 55c WU client succeeds
CClientCallRecorder::BeginDownloadUpdates from AutomaticUpdates with call id
{52ADF790-4104-4B41-BA91-C83C5A423F05}
2005-04-16 11:03:38-0400 1080 55c Successfully initiated download for 1
updates
2005-04-16 11:03:38-0400 1080 55c Successfully initiated download for 1
updates matching criteria 5
2005-04-16 11:03:38-0400 1080 55c Setting AU scheduled install time to
2005-04-17 07:00:00
2005-04-16 11:03:38-0400 1080 55c WU client calls back to search call
AutomaticUpdates with code Call complete and error 0
2005-04-16 11:03:38-0400 1080 55c WU client completed and deleted call
{DDC78A30-FC19-4539-9822-C3D279F7A1EA}
2005-04-16 11:03:38-0400 1080 89c Dumping out update 1 of 1
2005-04-16 11:03:38-0400 1080 89c title = Security Update for Windows XP
(KB873333)
2005-04-16 11:03:38-0400 1080 89c dumping updateId
{DD2CC470-501A-4BF2-BC57-88C8F52439EB}.101 bundling 1 updates
2005-04-16 11:03:38-0400 1080 89c bundled update No. 1 is
{5C0B58C4-9350-4CF2-8197-83D3C89F20D5}.101
2005-04-16 11:03:38-0400 1080 744 ISusInternal API failed
CClientCallRecorder:isconnectCall with error 0x8024000c
2005-04-16 11:03:38-0400 1048 40c ISusInternal:isconnectCall failed,
hr=8024000C
2005-04-16 11:03:42-0400 1080 89c Updateci: OpenFileForScan(
C:\WINDOWS\SoftwareDistribution\Download\S-1-5-18\810c536d786592e0efb9852931bf1ba6\update\update. exe ): failed (3)
2005-04-16 11:03:42-0400 1080 89c Updateci:
WinSEUpdateHandler::_LaunchInstaller: Failed opening
C:\WINDOWS\SoftwareDistribution\Download\S-1-5-18\810c536d786592e0efb9852931bf1ba6\update\update. exe (3)
2005-04-16 11:03:42-0400 1080 89c Updateci: WinSEUpdateHandler::_Inventory:
Installer returned 0x3 (3)
2005-04-16 11:03:42-0400 1080 89c DM: GenerateDownloadRequest failed with
0x80070003.
2005-04-16 11:03:42-0400 1080 89c Error 80070003 occurred while downloading
update; notifying dependent calls.
2005-04-16 11:03:42-0400 1080 89c WU client persisted 1 download calls
2005-04-16 11:03:43-0400 1080 89c WU client persisted 1 download calls
2005-04-16 11:03:43-0400 1080 55c Update Download failed, error is 80070003
2005-04-16 11:03:43-0400 1080 55c Download complete for all calls
2005-04-16 11:03:43-0400 1080 55c Setting AU scheduled install time to
2005-04-17 07:00:00
2005-04-16 11:03:43-0400 1080 55c WU client calls back to download call
{52ADF790-4104-4B41-BA91-C83C5A423F05} with code Call complete and error 0
2005-04-16 11:03:43-0400 1080 55c WU client completed and deleted call
{52ADF790-4104-4B41-BA91-C83C5A423F05}
2005-04-16 11:03:43-0400 1080 55c WU client persisted 0 download calls
2005-04-16 11:03:47-0400 1080 448 REPORT EVENT:
{8C84996D-38A8-4587-8EF9-E8A3A50B416A} 891 2005-04-16
11:03:42-0400 1 161 101 {DD2CC470-501A-4BF2-BC57-88C8F52439EB} 101 80070003 AutomaticUpdates Failure Content Download Error: Download failed.
2005-04-16 11:03:47-0400 1080 448 REPORT EVENT:
{677B7933-A6D2-4621-8995-FC651F3749B0} 892 2005-04-16
11:03:42-0400 1 162 101 {5C0B58C4-9350-4CF2-8197-83D3C89F20D5} 101 80070003 AutomaticUpdates Success Content Download Download succeeded.
2005-04-16 11:03:47-0400 1080 448 REPORT EVENT:
{81B51D61-6E4B-4D8F-9CA5-CEDBC68AFB68} 893 2005-04-16
11:03:42-0400 1 161 101 {5C0B58C4-9350-4CF2-8197-83D3C89F20D5} 101 80070003 AutomaticUpdates Failure Content Download Error: Download failed.
2005-04-16 11:03:52-0400 1080 60c AU received event of 1
2005-04-16 11:03:52-0400 1080 60c No pending client directive, bailing out
2005-04-16 11:04:05-0400 1080 578 ISusInternal API failed
CClientCallRecorder:isconnectCall with error 0x8024000c
2005-04-16 11:04:05-0400 1048 40c ISusInternal:isconnectCall failed,
hr=8024000C
2005-04-16 11:08:54-0400 3236 e80 Out of proc datastore is shutting down
2005-04-16 11:08:55-0400 3236 e80 Out of proc datastore is now inactive

Ads
 




Thread Tools
Display Modes

Posting Rules
You may not post new threads
You may not post replies
You may not post attachments
You may not edit your posts

vB code is On
Smilies are On
[IMG] code is Off
HTML code is Off

Similar Threads
Thread Thread Starter Forum Replies Last Post
Security update kb885836 won't install [email protected] Performance and Maintainance of XP 1 April 4th 05 12:33 PM
Norton Internet Security install ish SP2 Chuck Windows Service Pack 2 5 March 4th 05 02:41 PM
NORTON INTERNET SECURITY WILL NOT INSTALL Phil General XP issues or comments 8 January 5th 05 09:37 PM
After SP2 software will not work Zane Windows Service Pack 2 26 August 18th 04 01:26 AM






All times are GMT +1. The time now is 06:06 PM.


Powered by vBulletin® Version 3.6.4
Copyright ©2000 - 2023, Jelsoft Enterprises Ltd.
Copyright 2004-2023 PCbanter.
The comments are property of their posters.